EW6246 Weather Reports


Display with metric or nautical units.
time (UTC)temp
F
wind
direction
speed
MPH
gust
MPH
rain 1hr
in
rain 24hr
in
rain mn
in
humidity
%
barometer
mb
20260510212800 78 310 3.0 5.0 0.00 0.00 0.00 70 1018.3
20260510212258 78 303 1.0 1.0 0.00 0.00 0.00 70 1018.1
20260510211754 78 286 0.0 0.0 0.00 0.00 0.00 72 1018.2
20260510211249 77 224 1.0 2.0 0.00 0.00 0.00 74 1018.1
20260510210745 78 232 3.0 3.0 0.00 0.00 0.00 73 1018.0
20260510210240 78 251 1.0 2.0 0.00 0.00 0.00 74 1018.0
20260510205735 78 316 1.0 1.0 0.00 0.00 0.00 72 1017.7
20260510205230 78 300 2.0 2.0 0.00 0.00 0.00 72 1017.7
20260510204727 78 260 3.0 5.0 0.00 0.00 0.00 74 1017.8
20260510204223 78 235 3.0 5.0 0.00 0.00 0.00 74 1017.9
20260510203720 78 256 2.0 2.0 0.00 0.00 0.00 75 1017.7
20260510203217 78 357 5.0 9.0 0.00 0.00 0.00 74 1017.7
20260510202712 78 309 4.0 5.0 0.00 0.00 0.00 74 1017.8
20260510202207 78 102 5.0 9.0 0.00 0.00 0.00 77 1018.0
20260510201705 77 282 3.0 5.0 0.00 0.00 0.00 79 1018.2
20260510201201 76 258 4.0 5.0 0.00 0.00 0.00 81 1018.1
20260510200658 75 258 1.0 1.0 0.00 0.00 0.00 87 1018.2
20260510200156 73 258 3.0 5.0 0.00 0.00 0.00 88 1018.1
20260510195653 75 258 2.0 3.0 0.00 0.00 0.00 87 1018.3
20260510195149 77 258 1.0 1.0 0.00 0.00 0.00 83 1018.2
20260510194648 78 258 3.0 3.0 0.00 0.00 0.00 81 1018.2
20260510194145 80 258 1.0 2.0 0.00 0.00 0.00 74 1018.0
20260510193640 80 258 3.0 5.0 0.00 0.00 0.00 71 1018.2
20260510193136 81 263 3.0 3.0 0.00 0.00 0.00 71 1018.2
20260510192631 80 12 4.0 6.0 0.00 0.00 0.00 71 1018.1
20260510192127 80 116 2.0 2.0 0.00 0.00 0.00 71 1018.4
20260510191624 80 326 4.0 7.0 0.00 0.00 0.00 74 1018.5
20260510191120 78 258 0.0 1.0 0.00 0.00 0.00 78 1018.3
20260510190617 77 258 6.0 9.0 0.00 0.00 0.00 80 1018.5
20260510190115 77 258 3.0 3.0 0.00 0.00 0.00 81 1018.7
20260510185611 81 258 3.0 3.0 0.00 0.00 0.00 72 1018.4
20260510185109 81 258 3.0 5.0 0.00 0.00 0.00 71 1018.4
20260510184606 81 272 3.0 7.0 0.00 0.00 0.00 72 1018.6
20260510184102 82 354 3.0 3.0 0.00 0.00 0.00 71 1018.5
20260510183557 81 293 4.0 6.0 0.00 0.00 0.00 73 1018.4
20260510183052 80 258 1.0 1.0 0.00 0.00 0.00 74 1018.6
20260510182549 77 258 1.0 2.0 0.00 0.00 0.00 78 1018.7
20260510182044 77 258 1.0 1.0 0.00 0.00 0.00 78 1018.9
20260510181542 78 258 1.0 2.0 0.00 0.00 0.00 78 1019.1
20260510181038 80 258 6.0 8.0 0.00 0.00 0.00 72 1018.9
20260510180535 83 258 3.0 5.0 0.00 0.00 0.00 69 1019.0
20260510180033 81 258 1.0 2.0 0.00 0.00 0.00 70 1019.0
20260510175527 81 258 0.0 1.0 0.00 0.00 0.00 69 1018.9
20260510175024 83 258 3.0 6.0 0.00 0.00 0.00 67 1018.6
20260510174522 82 258 1.0 1.0 0.00 0.00 0.00 66 1019.1
20260510174019 80 258 3.0 5.0 0.00 0.00 0.00 69 1018.9
20260510173514 78 258 1.0 2.0 0.00 0.00 0.00 76 1019.1
20260510173011 81 258 1.0 1.0 0.00 0.00 0.00 73 1019.2
20260510172507 82 258 4.0 5.0 0.00 0.00 0.00 69 1019.1
20260510172004 82 258 1.0 1.0 0.00 0.00 0.00 66 1019.1
20260510171455 83 258 1.0 1.0 0.00 0.00 0.00 65 1019.5
20260510170951 82 258 1.0 1.0 0.00 0.00 0.00 69 1019.4
20260510170448 81 258 2.0 2.0 0.00 0.00 0.00 69 1019.7
20260510165944 81 258 2.0 2.0 0.00 0.00 0.00 69 1019.7
20260510165440 80 258 1.0 1.0 0.00 0.00 0.00 70 1019.4
20260510164937 82 258 1.0 2.0 0.00 0.00 0.00 70 1019.6
20260510164434 80 258 3.0 3.0 0.00 0.00 0.00 72 1019.3
20260510163934 83 258 2.0 3.0 0.00 0.00 0.00 69 1019.5
20260510163431 84 258 3.0 5.0 0.00 0.00 0.00 58 1019.7
20260510162925 83 258 2.0 3.0 0.00 0.00 0.00 64 1019.7
20260510162423 82 258 1.0 2.0 0.00 0.00 0.00 66 1019.7
20260510161919 84 258 2.0 2.0 0.00 0.00 0.00 62 1019.6
20260510161414 84 258 1.0 2.0 0.00 0.00 0.00 58 1019.8
20260510160912 82 258 1.0 1.0 0.00 0.00 0.00 60 1019.8
20260510160409 81 258 3.0 3.0 0.00 0.00 0.00 62 1019.7
20260510155902 80 258 0.0 0.0 0.00 0.00 0.00 66 1019.7
20260510155359 81 258 1.0 1.0 0.00 0.00 0.00 65 1019.8
20260510154855 81 258 1.0 2.0 0.00 0.00 0.00 63 1019.9
20260510154352 81 258 0.0 0.0 0.00 0.00 0.00 67 1019.9
20260510153845 82 258 0.0 1.0 0.00 0.00 0.00 62 1019.9
20260510153342 81 258 1.0 2.0 0.00 0.00 0.00 64 1019.9
20260510152838 79 258 1.0 2.0 0.00 0.00 0.00 71 1020.2
20260510152336 79 258 1.0 1.0 0.00 0.00 0.00 68 1020.0
20260510151832 81 258 1.0 1.0 0.00 0.00 0.00 67 1019.9
20260510151330 81 258 3.0 6.0 0.00 0.00 0.00 66 1020.0
20260510150825 81 258 1.0 1.0 0.00 0.00 0.00 65 1019.8
20260510150321 81 258 1.0 1.0 0.00 0.00 0.00 61 1020.3
20260510145817 81 258 2.0 2.0 0.00 0.00 0.00 62 1020.2
20260510145314 82 258 1.0 2.0 0.00 0.00 0.00 61 1020.4
20260510144805 81 258 2.0 5.0 0.00 0.00 0.00 62 1020.3
20260510144302 81 258 2.0 2.0 0.00 0.00 0.00 61 1020.3
20260510143802 80 258 4.0 5.0 0.00 0.00 0.00 64 1020.3
20260510143258 80 258 6.0 9.0 0.00 0.00 0.00 63 1020.4
20260510142754 80 258 1.0 1.0 0.00 0.00 0.00 62 1020.7
20260510142251 80 258 2.0 3.0 0.00 0.00 0.00 64 1020.4
20260510141749 80 258 3.0 3.0 0.00 0.00 0.00 63 1020.3
20260510141246 80 258 3.0 5.0 0.00 0.00 0.00 62 1020.2
20260510140742 81 258 5.0 9.0 0.00 0.00 0.00 59 1020.4
20260510140237 81 258 3.0 5.0 0.00 0.00 0.00 61 1020.6
20260510135732 80 258 1.0 1.0 0.00 0.00 0.00 64 1020.3
20260510135228 80 258 1.0 2.0 0.00 0.00 0.00 64 1020.3
20260510134726 79 258 1.0 2.0 0.00 0.00 0.00 64 1020.3
20260510134223 80 258 5.0 7.0 0.00 0.00 0.00 63 1020.2
20260510133718 79 258 1.0 1.0 0.00 0.00 0.00 65 1020.1
20260510133214 79 265 4.0 7.0 0.00 0.00 0.00 67 1020.3
20260510132711 79 258 3.0 3.0 0.00 0.00 0.00 65 1020.2
20260510132208 79 261 3.0 5.0 0.00 0.00 0.00 65 1020.1
20260510131705 79 237 3.0 5.0 0.00 0.00 0.00 67 1020.0
20260510131203 80 256 1.0 2.0 0.00 0.00 0.00 63 1020.1
20260510130653 79 293 3.0 5.0 0.00 0.00 0.00 67 1020.1
20260510130151 80 330 3.0 5.0 0.00 0.00 0.00 64 1020.2
20260510125647 79 309 1.0 1.0 0.00 0.00 0.00 67 1020.1
20260510125143 79 273 0.0 1.0 0.00 0.00 0.00 68 1020.2
20260510124640 79 263 1.0 1.0 0.00 0.00 0.00 68 1020.2
20260510124137 79 291 0.0 0.0 0.00 0.00 0.00 65 1020.1
20260510123632 78 272 1.0 1.0 0.00 0.00 0.00 67 1019.8
20260510123129 77 286 0.0 1.0 0.00 0.00 0.00 68 1020.0
20260510122625 77 273 1.0 2.0 0.00 0.00 0.00 70 1020.0
20260510122121 77 128 2.0 2.0 0.00 0.00 0.00 72 1019.9
20260510121618 76 297 0.0 1.0 0.00 0.00 0.00 76 1019.9
20260510121115 75 297 1.0 1.0 0.00 0.00 0.00 74 1019.6
20260510120613 72 337 2.0 2.0 0.00 0.00 0.00 80 1019.7
20260510120108 73 322 1.0 2.0 0.00 0.00 0.00 80 1019.8
20260510115605 72 287 0.0 0.0 0.00 0.00 0.00 80 1019.7
20260510115103 72 280 0.0 1.0 0.00 0.00 0.00 84 1019.5
20260510114558 71 308 1.0 1.0 0.00 0.00 0.00 80 1019.7
20260510114054 71 280 0.0 0.0 0.00 0.00 0.00 81 1019.7
20260510113549 72 356 2.0 2.0 0.00 0.00 0.00 82 1019.7
20260510113048 71 316 0.0 1.0 0.00 0.00 0.00 81 1019.5
20260510112544 71 273 0.0 1.0 0.00 0.00 0.00 82 1019.5
20260510112040 71 274 1.0 1.0 0.00 0.00 0.00 81 1019.7
20260510111537 70 275 0.0 0.0 0.00 0.00 0.00 84 1019.4
20260510111033 68 299 0.0 0.0 0.00 0.00 0.00 86 1019.3
20260510110529 68 316 1.0 1.0 0.00 0.00 0.00 89 1019.5
20260510110026 67 307 0.0 1.0 0.00 0.00 0.00 88 1019.4
20260510105521 66 325 2.0 2.0 0.00 0.00 0.00 88 1019.3
20260510105016 66 322 0.0 0.0 0.00 0.00 0.00 91 1019.6
20260510104513 66 322 0.0 1.0 0.00 0.00 0.00 90 1019.6
20260510104009 66 327 0.0 1.0 0.00 0.00 0.00 91 1019.3
20260510103507 66 328 1.0 1.0 0.00 0.00 0.00 90 1019.3
20260510103003 65 302 0.0 0.0 0.00 0.00 0.00 91 1019.1
20260510102458 65 307 0.0 0.0 0.00 0.00 0.00 91 1019.1
20260510101955 65 309 0.0 1.0 0.00 0.00 0.00 90 1019.1
20260510101452 65 49 2.0 3.0 0.00 0.00 0.00 90 1018.9
20260510100951 65 318 0.0 1.0 0.00 0.00 0.00 91 1018.9
20260510100447 65 318 0.0 1.0 0.00 0.00 0.00 91 1018.7
20260510095943 65 314 0.0 0.0 0.00 0.00 0.00 92 1018.9
20260510095439 64 307 0.0 0.0 0.00 0.00 0.00 91 1018.9
20260510094938 65 313 1.0 1.0 0.00 0.00 0.00 91 1018.6
20260510094433 65 307 1.0 1.0 0.00 0.00 0.00 92 1018.6
20260510093929 65 310 0.0 1.0 0.00 0.00 0.00 91 1018.4
20260510093424 65 311 0.0 0.0 0.00 0.00 0.00 92 1018.5
20260510092921 65 315 1.0 1.0 0.00 0.00 0.00 90 1018.1
20260510092418 65 319 0.0 0.0 0.00 0.00 0.00 91 1018.2
20260510091913 66 323 1.0 1.0 0.00 0.00 0.00 90 1018.3
20260510091410 66 323 0.0 0.0 0.00 0.00 0.00 88 1018.2
20260510090906 67 322 0.0 0.0 0.00 0.00 0.00 86 1018.3
20260510090402 66 343 1.0 2.0 0.00 0.00 0.00 87 1018.1
20260510085858 66 309 0.0 1.0 0.00 0.00 0.00 87 1018.1
20260510085353 67 314 1.0 1.0 0.00 0.00 0.00 88 1018.0
20260510084844 66 282 1.0 1.0 0.00 0.00 0.00 86 1017.8
20260510084342 67 295 0.0 0.0 0.00 0.00 0.00 88 1017.8
20260510083838 67 304 1.0 1.0 0.00 0.00 0.00 85 1017.6
20260510083335 66 312 1.0 1.0 0.00 0.00 0.00 86 1017.8
20260510082830 66 309 1.0 1.0 0.00 0.00 0.00 87 1017.4
20260510082328 66 298 0.0 1.0 0.00 0.00 0.00 89 1017.6
20260510081826 66 274 0.0 1.0 0.00 0.00 0.00 87 1017.6
20260510081323 67 47 2.0 2.0 0.00 0.00 0.00 84 1017.6
20260510080819 67 319 0.0 0.0 0.00 0.00 0.00 86 1017.4
20260510080314 66 315 0.0 0.0 0.00 0.00 0.00 87 1017.6
20260510075811 66 314 0.0 0.0 0.00 0.00 0.00 90 1017.5
20260510075308 66 319 0.0 0.0 0.00 0.00 0.00 90 1017.7
20260510074805 67 313 0.0 0.0 0.00 0.00 0.00 87 1017.8
20260510074302 67 285 1.0 1.0 0.00 0.00 0.00 85 1017.4
20260510073758 67 297 0.0 1.0 0.00 0.00 0.00 87 1017.7
20260510073254 67 304 0.0 0.0 0.00 0.00 0.00 87 1017.7
20260510072750 68 293 0.0 0.0 0.00 0.00 0.00 85 1017.6
20260510072247 68 312 0.0 0.0 0.00 0.00 0.00 83 1017.6
20260510071743 68 283 1.0 1.0 0.00 0.00 0.00 82 1017.7
20260510071240 68 297 0.0 0.0 0.00 0.00 0.00 86 1017.7
20260510070738 69 306 0.0 0.0 0.00 0.00 0.00 86 1017.6
20260510070235 69 271 2.0 3.0 0.00 0.00 0.00 82 1017.5
20260510065729 69 282 0.0 1.0 0.00 0.00 0.00 82 1017.7
20260510065226 69 228 1.0 1.0 0.00 0.00 0.00 83 1017.7
20260510064722 68 285 1.0 1.0 0.00 0.00 0.00 84 1017.9
20260510064220 66 302 0.0 1.0 0.00 0.00 0.00 91 1017.9
20260510063716 66 293 0.0 0.0 0.00 0.00 0.00 92 1017.7
20260510063212 66 320 0.0 0.0 0.00 0.00 0.00 91 1017.7
20260510062709 66 313 1.0 1.0 0.00 0.00 0.00 91 1017.8
20260510062206 66 314 0.0 0.0 0.00 0.00 0.00 92 1017.6
20260510061700 65 321 1.0 1.0 0.00 0.00 0.00 92 1017.8
20260510061158 66 316 1.0 1.0 0.00 0.00 0.00 90 1018.0
20260510060655 67 54 2.0 2.0 0.00 0.00 0.00 89 1018.0
20260510060151 67 312 0.0 0.0 0.00 0.00 0.00 89 1018.0
20260510055647 66 327 1.0 1.0 0.00 0.00 0.00 90 1017.9
20260510055145 67 307 0.0 1.0 0.00 0.00 0.00 90 1017.8
20260510054641 66 290 0.0 0.0 0.00 0.00 0.00 88 1017.9
20260510054137 66 301 0.0 0.0 0.00 0.00 0.00 90 1017.8
20260510053636 66 314 0.0 0.0 0.00 0.00 0.00 89 1018.1
20260510053133 66 272 0.0 1.0 0.00 0.00 0.00 89 1018.2
20260510052629 66 312 0.0 1.0 0.00 0.00 0.00 89 1018.4
20260510052125 65 302 0.0 0.0 0.00 0.00 0.00 90 1018.0
20260510051620 65 302 0.0 0.0 0.00 0.00 0.00 91 1018.2
20260510051118 65 317 1.0 1.0 0.00 0.00 0.00 92 1018.2
20260510050615 65 307 0.0 0.0 0.00 0.00 0.00 92 1018.1
20260510050112 64 302 0.0 0.0 0.00 0.00 0.00 91 1018.2
20260510045609 64 295 0.0 0.0 0.00 0.00 0.00 92 1018.4
20260510045105 65 323 1.0 1.0 0.00 0.00 0.00 92 1018.5
20260510044602 65 284 0.0 0.0 0.00 0.00 0.00 92 1018.4
20260510044059 66 298 0.0 1.0 0.00 0.00 0.00 91 1018.3
20260510043554 67 292 0.0 0.0 0.00 0.00 0.00 88 1018.3
20260510043051 67 284 0.0 0.0 0.00 0.00 0.00 87 1018.4
20260510042550 67 253 1.0 1.0 0.00 0.00 0.00 85 1018.5
20260510042045 65 170 2.0 5.0 0.00 0.00 0.00 92 1018.7
20260510041542 65 292 0.0 0.0 0.00 0.00 0.00 91 1018.7
20260510041040 66 299 0.0 0.0 0.00 0.00 0.00 91 1018.7
20260510040536 66 289 0.0 0.0 0.00 0.00 0.00 89 1018.6
20260510040032 66 254 1.0 1.0 0.00 0.00 0.00 90 1018.9
20260510035529 66 326 0.0 1.0 0.00 0.00 0.00 92 1018.6
20260510035028 66 313 0.0 1.0 0.00 0.00 0.00 91 1019.0
20260510034527 66 300 0.0 0.0 0.00 0.00 0.00 91 1019.0
20260510034023 66 319 0.0 0.0 0.00 0.00 0.00 91 1018.7
20260510033519 67 298 0.0 0.0 0.00 0.00 0.00 91 1018.9
20260510033018 67 325 1.0 1.0 0.00 0.00 0.00 91 1019.0
20260510032514 67 318 1.0 1.0 0.00 0.00 0.00 89 1018.9
20260510032009 67 296 1.0 2.0 0.00 0.00 0.00 89 1019.1
20260510031504 67 316 0.0 0.0 0.00 0.00 0.00 92 1019.0
20260510031001 67 321 0.0 0.0 0.00 0.00 0.00 92 1019.1
20260510030456 67 319 0.0 0.0 0.00 0.00 0.00 92 1019.3
20260510025953 67 303 0.0 0.0 0.00 0.00 0.00 92 1019.0
20260510025450 67 314 0.0 1.0 0.00 0.00 0.00 92 1019.5
20260510024948 67 304 0.0 0.0 0.00 0.00 0.00 93 1019.4
20260510024444 67 310 0.0 0.0 0.00 0.00 0.00 93 1019.3
20260510023940 67 307 0.0 1.0 0.00 0.00 0.00 92 1019.3
20260510023437 67 300 1.0 1.0 0.00 0.00 0.00 93 1019.2
20260510022934 67 290 1.0 1.0 0.00 0.00 0.00 92 1019.1
20260510022433 67 296 0.0 0.0 0.00 0.00 0.00 92 1019.1
20260510021932 67 306 0.0 0.0 0.00 0.00 0.00 92 1019.0
20260510021430 67 306 0.0 1.0 0.00 0.00 0.00 91 1019.0
20260510020926 68 317 0.0 0.0 0.00 0.00 0.00 91 1018.9
20260510020421 68 293 0.0 0.0 0.00 0.00 0.00 89 1018.9
20260510015917 69 291 0.0 0.0 0.00 0.00 0.00 87 1018.9
20260510015413 69 282 0.0 1.0 0.00 0.00 0.00 86 1019.0
20260510014908 69 284 0.0 0.0 0.00 0.00 0.00 86 1019.1
20260510014406 69 246 2.0 2.0 0.00 0.00 0.00 86 1018.7
20260510013903 69 302 1.0 1.0 0.00 0.00 0.00 87 1018.9
20260510013357 68 280 1.0 1.0 0.00 0.00 0.00 88 1019.1
20260510012852 68 285 0.0 0.0 0.00 0.00 0.00 89 1019.1
20260510012348 68 288 0.0 0.0 0.00 0.00 0.00 89 1019.1
20260510011843 68 299 0.0 0.0 0.00 0.00 0.00 88 1019.1
20260510011338 69 288 0.0 0.0 0.00 0.00 0.00 87 1019.0
20260510010835 69 301 0.0 1.0 0.00 0.00 0.00 85 1018.9
20260510010332 70 279 1.0 1.0 0.00 0.00 0.00 84 1018.9
20260510005828 70 279 1.0 2.0 0.00 0.00 0.00 84 1018.6
20260510005325 70 285 1.0 1.0 0.00 0.00 0.00 83 1018.9
20260510004823 70 262 1.0 1.0 0.00 0.00 0.00 83 1018.7
20260510004320 70 266 2.0 2.0 0.00 0.00 0.00 83 1018.4
20260510003818 70 299 2.0 2.0 0.00 0.00 0.00 81 1018.5
20260510003315 70 283 1.0 1.0 0.00 0.00 0.00 80 1018.4
20260510002813 70 254 4.0 5.0 0.00 0.00 0.00 80 1018.3
20260510002311 70 315 1.0 1.0 0.00 0.00 0.00 80 1018.6
20260510001807 70 264 3.0 5.0 0.00 0.00 0.00 80 1018.4
20260510001305 70 248 3.0 3.0 0.00 0.00 0.00 81 1018.1
20260510000801 70 293 0.0 1.0 0.00 0.00 0.00 82 1018.5
20260510000259 70 267 0.0 1.0 0.00 0.00 0.00 83 1018.1
20260509235756 70 273 1.0 1.0 0.00 0.00 0.00 86 1018.2
20260509235252 69 286 0.0 0.0 0.00 0.00 0.00 91 1018.1
20260509234747 70 282 0.0 1.0 0.00 0.00 0.00 91 1018.2
20260509234245 70 264 0.0 0.0 0.00 0.00 0.00 91 1018.1
20260509233743 70 263 0.0 0.0 0.00 0.00 0.00 90 1017.9
20260509233240 70 285 0.0 0.0 0.00 0.00 0.00 91 1018.0
20260509232736 70 274 0.0 0.0 0.00 0.00 0.00 91 1017.7
20260509232233 70 272 0.0 0.0 0.00 0.00 0.00 91 1017.7
20260509231730 71 273 0.0 0.0 0.00 0.00 0.00 91 1017.7
20260509231227 71 284 0.0 0.0 0.00 0.00 0.00 90 1017.6
20260509230725 71 263 0.0 0.0 0.00 0.00 0.00 89 1017.3
20260509230221 72 280 1.0 1.0 0.00 0.00 0.00 88 1017.2
20260509225716 72 261 1.0 2.0 0.00 0.00 0.00 87 1017.2
20260509225212 72 268 1.0 2.0 0.00 0.00 0.00 87 1017.3
20260509224708 72 254 4.0 5.0 0.00 0.00 0.00 86 1017.2
20260509224205 73 259 2.0 3.0 0.00 0.00 0.00 86 1017.2
20260509223702 73 259 4.0 5.0 0.00 0.00 0.00 85 1017.1
20260509223154 73 279 2.0 3.0 0.00 0.00 0.00 84 1017.3
20260509222651 74 264 3.0 5.0 0.00 0.00 0.00 83 1017.1
20260509222146 74 266 7.0 8.0 0.00 0.00 0.00 82 1017.1
20260509221642 75 262 2.0 2.0 0.00 0.00 0.00 82 1017.0
20260509221138 75 258 3.0 3.0 0.00 0.00 0.00 82 1016.9
20260509220634 75 259 2.0 2.0 0.00 0.00 0.00 82 1016.9
20260509220130 75 258 2.0 2.0 0.00 0.00 0.00 82 1016.6
20260509215627 75 258 3.0 3.0 0.00 0.00 0.00 81 1016.9
20260509215123 75 258 2.0 3.0 0.00 0.00 0.00 80 1016.6
20260509214621 75 258 3.0 5.0 0.00 0.00 0.00 79 1016.7
20260509214117 76 258 4.0 5.0 0.00 0.00 0.00 77 1016.5
20260509213613 77 249 2.0 2.0 0.00 0.00 0.00 77 1016.3
20260509213110 77 222 4.0 5.0 0.00 0.00 0.00 76 1016.3